Harlan, IA

2:12 AM CST on February 27, 2017 (GMT -0600)
Harlan Municipal

Weather History for KHNR - October, 2012

Change the Weather History Date:

Wednesday, October 17, 2012

  Actual Average Record
Temperature  
Mean Temperature 53 °F -  
Max Temperature 62 °F 62 °F 84 °F (2016)
Min Temperature 44 °F 38 °F 16 °F (1976)
Degree Days  
Heating Degree Days 12    
Growing Degree Days 3 (Base 50)    
Moisture  
Dew Point 40 °F    
Average Humidity 58    
Maximum Humidity 94    
Minimum Humidity 34    
Precipitation  
Precipitation 0.06 in - - ()
Sea Level Pressure  
Sea Level Pressure 29.49 in    
Wind  
Wind Speed 12 mph (West)    
Max Wind Speed 33 mph    
Max Gust Speed 43 mph    
Visibility 10 miles    
Events Rain    
Averages and records for this station are not official NWS values.
T = Trace of Precipitation, MM = Missing Value Source: NWS Daily Summary

Daily Weather History Graph

Daily Weather History Graph

Search for Another Location

Airport or City:

Trip Planner

Search our weather history database for the weather conditions in past years. The results will help you decide how hot, cold, wet, or windy it might be!

Date:

Astronomy

Oct. 17, 2012 Rise Set
Actual Time 7:36 AM CDT 6:36 PM CDT
Civil Twilight 7:08 AM CDT 7:04 PM CDT
Nautical Twilight 6:35 AM CDT 7:36 PM CDT
Astronomical Twilight 6:03 AM CDT 8:08 PM CDT
Moon 10:13 AM CDT (10/17) 8:10 PM CDT (10/17)
Length of Visible Light 11h 56m
Length of Day
11h 00m
Waxing Crescent, 7% of the Moon is Illuminated
Oct 17
Waxing Crescent
Oct 21
First Quarter
Oct 29
Full
Nov 6
Last Quarter
Nov 13
New

Hourly Weather History & Observations

Time (CDT) Temp. Windchill Dew Point Humidity Pressure Visibility Wind Dir Wind Speed Gust Speed Precip Events Conditions
12:15 AM 55.4 °F - 46.4 °F 72% 29.45 in 10.0 mi Calm Calm - N/A   Clear
12:35 AM 55.4 °F - 46.4 °F 72% 29.45 in 10.0 mi South 3.5 mph - N/A   Clear
12:55 AM 55.4 °F - 48.2 °F 77% 29.44 in 10.0 mi South 4.6 mph - N/A   Clear
1:15 AM 55.4 °F - 48.2 °F 77% 29.43 in 10.0 mi South 5.8 mph - N/A   Scattered Clouds
1:35 AM 57.2 °F - 48.2 °F 72% 29.43 in 10.0 mi South 8.1 mph - N/A   Scattered Clouds
1:55 AM 57.2 °F - 50.0 °F 77% 29.42 in 10.0 mi SSE 5.8 mph - N/A Rain Light Rain
2:15 AM 57.2 °F - 48.2 °F 72% 29.42 in 10.0 mi South 6.9 mph - N/A   Scattered Clouds
2:35 AM 59.0 °F - 48.2 °F 67% 29.41 in 10.0 mi South 8.1 mph - N/A   Clear
2:55 AM 57.2 °F - 48.2 °F 72% 29.40 in 10.0 mi South 8.1 mph - N/A   Clear
3:15 AM 59.0 °F - 46.4 °F 63% 29.40 in 10.0 mi South 6.9 mph - N/A   Clear
3:35 AM 59.0 °F - 46.4 °F 63% 29.38 in 10.0 mi South 8.1 mph - N/A   Clear
3:55 AM 59.0 °F - 46.4 °F 63% 29.37 in 10.0 mi South 6.9 mph - N/A   Clear
4:15 AM 59.0 °F - 48.2 °F 67% 29.36 in 10.0 mi South 9.2 mph - N/A   Clear
4:35 AM 60.8 °F - 48.2 °F 63% 29.36 in 10.0 mi SSW 9.2 mph - N/A   Clear
4:55 AM 59.0 °F - 50.0 °F 72% 29.36 in 10.0 mi SSW 12.7 mph - N/A   Clear
5:15 AM 59.0 °F - 51.8 °F 77% 29.38 in 10.0 mi SSW 10.4 mph - N/A   Clear
5:35 AM 60.8 °F - 50.0 °F 68% 29.38 in 10.0 mi SSW 10.4 mph - N/A   Scattered Clouds
5:55 AM 60.8 °F - 50.0 °F 68% 29.38 in 10.0 mi SW 10.4 mph - N/A   Clear
6:15 AM 62.6 °F - 46.4 °F 55% 29.40 in 10.0 mi West 16.1 mph 23.0 mph N/A   Clear
6:35 AM 60.8 °F - 46.4 °F 59% 29.41 in 10.0 mi WNW 18.4 mph 31.1 mph N/A   Clear
6:55 AM 60.8 °F - 46.4 °F 59% 29.43 in 10.0 mi WNW 18.4 mph 27.6 mph N/A   Clear
7:15 AM 59.0 °F - 46.4 °F 63% 29.43 in 10.0 mi WNW 12.7 mph 17.3 mph N/A   Clear
7:35 AM 59.0 °F - 48.2 °F 67% 29.44 in 10.0 mi West 10.4 mph - N/A   Scattered Clouds
7:55 AM 59.0 °F - 48.2 °F 67% 29.45 in 10.0 mi WNW 11.5 mph 17.3 mph N/A   Mostly Cloudy
8:15 AM 59.0 °F - 48.2 °F 67% 29.45 in 10.0 mi WNW 18.4 mph 23.0 mph N/A   Overcast
8:35 AM 55.4 °F - 51.8 °F 88% 29.48 in 10.0 mi West 19.6 mph 25.3 mph N/A   Drizzle
8:55 AM 53.6 °F - 51.8 °F 94% 29.48 in 10.0 mi WNW 13.8 mph - 0.03 in Rain Light Rain
9:15 AM 53.6 °F - 51.8 °F 94% 29.50 in 10.0 mi West 9.2 mph - 0.01 in Rain Light Rain
9:35 AM 53.6 °F - 51.8 °F 94% 29.49 in 10.0 mi West 9.2 mph - 0.03 in Rain Light Rain
9:55 AM 53.6 °F - 48.2 °F 82% 29.51 in 10.0 mi WNW 13.8 mph 19.6 mph 0.03 in   Light Drizzle
10:15 AM 53.6 °F - 48.2 °F 82% 29.51 in 10.0 mi West 11.5 mph - N/A   Mostly Cloudy
10:35 AM 55.4 °F - 48.2 °F 77% 29.52 in 10.0 mi West 11.5 mph - N/A   Mostly Cloudy
10:55 AM 57.2 °F - 46.4 °F 67% 29.52 in 10.0 mi WNW 17.3 mph 23.0 mph N/A   Scattered Clouds
11:15 AM 55.4 °F - 42.8 °F 63% 29.52 in 10.0 mi WNW 17.3 mph 26.5 mph N/A   Clear
11:35 AM 55.4 °F - 41.0 °F 58% 29.52 in 10.0 mi WNW 20.7 mph 24.2 mph N/A   Clear
11:55 AM 57.2 °F - 41.0 °F 55% 29.52 in 10.0 mi WNW 21.9 mph 26.5 mph N/A   Clear
12:15 PM 59.0 °F - 39.2 °F 48% 29.52 in 10.0 mi WNW 21.9 mph 26.5 mph N/A   Clear
12:35 PM 57.2 °F - 37.4 °F 48% 29.51 in 10.0 mi WNW 25.3 mph 32.2 mph N/A   Clear
12:55 PM 57.2 °F - 35.6 °F 44% 29.51 in 10.0 mi West 26.5 mph 32.2 mph N/A   Clear
1:15 PM 60.8 °F - 35.6 °F 39% 29.49 in 10.0 mi West 28.8 mph 34.5 mph N/A   Clear
1:35 PM 59.0 °F - 35.6 °F 42% 29.49 in 10.0 mi WNW 32.2 mph 39.1 mph N/A   Clear
1:55 PM 57.2 °F - 35.6 °F 44% 29.50 in 10.0 mi WNW 29.9 mph 36.8 mph N/A   Scattered Clouds
2:15 PM 57.2 °F - 35.6 °F 44% 29.49 in 10.0 mi WNW 33.4 mph 40.3 mph N/A   Mostly Cloudy
2:35 PM 57.2 °F - 35.6 °F 44% 29.50 in 10.0 mi WNW 27.6 mph 35.7 mph N/A   Mostly Cloudy
2:55 PM 57.2 °F - 35.6 °F 44% 29.49 in 10.0 mi WNW 27.6 mph 35.7 mph N/A   Mostly Cloudy
3:15 PM 57.2 °F - 35.6 °F 44% 29.49 in 10.0 mi WNW 31.1 mph 39.1 mph N/A   Mostly Cloudy
3:35 PM 57.2 °F - 35.6 °F 44% 29.50 in 10.0 mi WNW 26.5 mph 42.6 mph N/A   Mostly Cloudy
3:55 PM 55.4 °F - 35.6 °F 47% 29.51 in 10.0 mi WNW 31.1 mph 40.3 mph N/A   Mostly Cloudy
4:15 PM 55.4 °F - 33.8 °F 44% 29.52 in 10.0 mi NW 24.2 mph 36.8 mph N/A   Overcast
4:35 PM 55.4 °F - 33.8 °F 44% 29.52 in 10.0 mi WNW 21.9 mph 32.2 mph N/A   Overcast
4:55 PM 55.4 °F - 30.2 °F 38% 29.52 in 10.0 mi WNW 29.9 mph 38.0 mph N/A   Overcast
5:15 PM 55.4 °F - 30.2 °F 38% 29.53 in 10.0 mi WNW 28.8 mph 38.0 mph N/A   Overcast
5:35 PM 55.4 °F - 30.2 °F 38% 29.54 in 10.0 mi NW 21.9 mph 34.5 mph N/A   Overcast
5:55 PM 53.6 °F - 30.2 °F 41% 29.55 in 10.0 mi WNW 25.3 mph 28.8 mph N/A   Overcast
6:15 PM 53.6 °F - 30.2 °F 41% 29.56 in 10.0 mi NW 25.3 mph 33.4 mph N/A   Mostly Cloudy
6:35 PM 53.6 °F - 30.2 °F 41% 29.57 in 10.0 mi NW 24.2 mph 31.1 mph N/A   Mostly Cloudy
6:55 PM 51.8 °F - 30.2 °F 44% 29.57 in 10.0 mi NW 20.7 mph 27.6 mph N/A   Scattered Clouds
7:15 PM 51.8 °F - 30.2 °F 44% 29.58 in 10.0 mi WNW 13.8 mph - N/A   Mostly Cloudy
7:35 PM 48.2 °F - 30.2 °F 50% 29.59 in 10.0 mi WNW 8.1 mph - N/A   Scattered Clouds
7:55 PM 48.2 °F - 32.0 °F 54% 29.59 in 10.0 mi West 5.8 mph - N/A   Scattered Clouds
8:15 PM 46.4 °F 42.4 °F 32.0 °F 57% 29.60 in 10.0 mi West 8.1 mph - N/A   Clear
8:35 PM 48.2 °F - 30.2 °F 50% 29.60 in 10.0 mi West 6.9 mph - N/A   Clear
8:55 PM 48.2 °F - 30.2 °F 50% 29.59 in 10.0 mi West 8.1 mph - N/A   Clear
9:15 PM 48.2 °F - 30.2 °F 50% 29.59 in 10.0 mi WSW 8.1 mph - N/A   Clear
9:35 PM 48.2 °F - 30.2 °F 50% 29.58 in 10.0 mi WSW 6.9 mph - N/A   Clear
9:55 PM 48.2 °F - 28.4 °F 46% 29.58 in 10.0 mi West 10.4 mph - N/A   Clear
10:15 PM 48.2 °F - 26.6 °F 43% 29.58 in 10.0 mi WSW 9.2 mph - N/A   Clear
10:35 PM 46.4 °F 42.4 °F 26.6 °F 46% 29.58 in 10.0 mi WSW 8.1 mph - N/A   Clear
10:55 PM 44.6 °F 40.7 °F 26.6 °F 49% 29.58 in 10.0 mi WSW 6.9 mph - N/A   Scattered Clouds
11:15 PM 46.4 °F 40.7 °F 24.8 °F 43% 29.57 in 10.0 mi West 12.7 mph - N/A   Scattered Clouds
11:35 PM 48.2 °F - 21.2 °F 34% 29.56 in 10.0 mi West 15.0 mph - N/A   Clear
11:55 PM 48.2 °F - 21.2 °F 34% 29.55 in 10.0 mi West 17.3 mph - N/A   Clear